Regional Weather Roundup
Issued by NWS

Home | Current Version | Previous Version | Graphics & Text | Print | Product List | Glossary On
Versions: 1 2 3 4 5 6 7 8 9 10 11 12 13 14 15 16 17 18 19 20 21 22 23 24 25 26 27 28 29 30 31 32 33 34 35 36 37 38 39 40 41 42 43 44 45 46 47 48 49 50
901
ASUS43 KDTX 202110
RWRMI
MICHIGAN HOURLY REGIONAL WEATHER ROUNDUP
NATIONAL WEATHER SERVICE DETROIT/PONTIAC MI
400 PM EST MON NOV 20 2017

NOTE: "FAIR" INDICATES FEW OR NO CLOUDS BELOW 12,000 FEET WITH NO
SIGNIFICANT WEATHER AND/OR OBSTRUCTION TO VISIBILITY.

MIZ047>049-052>055-059>063-066>070-074>076-081>083-202200-
SOUTHEAST LOWER MICHIGAN

CITY           SKY/WX    TMP DP  RH WIND       PRES   REMARKS
ADRIAN         SUNNY     46  28  49 SW23G31   29.90F
ALMA           CLEAR     46  31  57 SW12G17   29.78F
ANN ARBOR      CLEAR     46  29  51 S13G25    29.87F
BAD AXE        PTCLDY    45  29  53 SW13      29.78F
CARO           CLOUDY    47  30  52 SW13      29.78S
DETROIT CITY   CLEAR    N/A N/A N/A SW20G30   29.88F
DETROIT        MOCLDY    47  29  49 SW23G32   29.90F
FLINT          CLEAR     49  28  44 SW16G26   29.81F
GROSSE ILE     CLEAR     46  30  54 SW15G25   29.90S
HILLSDALE      SUNNY     46  28  49 S15G21    29.86F
HOWELL         CLEAR     48  29  47 S14       29.82F

CITY           SKY/WX    TMP DP  RH WIND       PRES   REMARKS
JACKSON        SUNNY     49  28  44 S16G26    29.84F
LAMBERTVILLE   SUNNY     48  27  44 SW12G26   29.92S
LANSING        SUNNY     48  30  49 SW15      29.81F
LAPEER         FAIR      47  28  47 SW13G20   29.81S
MASON          SUNNY     50  30  45 S8G17     29.82S
MONROE         CLEAR     48  29  47 S14G23    29.90S
MT. CLEMENS    MOCLDY    47  30  51 SW14G26   29.85F
PONTIAC        MOCLDY    46  28  49 S15G25    29.83F
PORT HOPE        N/A     44  30  57 VRB3      29.77F
PORT HURON     CLEAR     45  30  57 S17G24    29.85F
TRI CITIES     CLEAR     46  32  58 SW10G21   29.78F
MIDLAND        FAIR      46  31  56 S10       29.77S
TROY           CLEAR     48  28  45 S13G23    29.87F
SAGINAW HB     CLEAR     45  32  61 SW16      29.78S
$$
MIZ043>046-050>051-056>058-064>065-071>073-077>080-202200-
SOUTHWEST LOWER MICHIGAN

CITY           SKY/WX    TMP DP  RH WIND       PRES   REMARKS
BATTLE CREEK   SUNNY     49  30  48 SW15      29.83F
BENTON HARBOR  SUNNY     52  29  41 S14G23    29.81F
BIG RAPIDS     CLEAR     45  33  63 S13G18    29.72F
COLDWATER      SUNNY     50  26  39 SW14G24   29.85F
FREMONT        FAIR      46  34  64 S18       29.73F
HOLLAND        SUNNY     49  30  48 SW20G37   29.77F
GRAND RAPIDS   PTSUNNY   48  31  51 S17       29.77F
IONIA          FAIR      48  30  50 S12       29.78F
KALAMAZOO      SUNNY     51  27  39 SW16G25   29.83F
LUDINGTON      SUNNY     45  34  65 S12G21    29.68F
MARSHALL       SUNNY     49  28  43 SW12G22   29.84S
MOUNT PLEASANT CLEAR     46  29  51 S9G17     29.75F
MUSKEGON       PTSUNNY   49  34  56 S16G30    29.75F
SOUTH HAVEN    CLOUDY    52  29  41 S14       29.79F
$$
MIZ016>042-202200-
NORTHERN LOWER MICHIGAN

CITY           SKY/WX    TMP DP  RH WIND       PRES   REMARKS
ALPENA         PTCLDY    43  34  70 S10       29.71F
BEAVER ISLAND  CLOUDY    43  35  72 S6        29.63F
BELLAIRE       PTCLDY    43  36  74 S9G16     29.67F
CADILLAC       CLEAR     43  33  68 S10G22    29.67F
CHARLEVOIX     PTCLDY    44  33  65 S10       29.68F
FRANKFORT      PTCLDY    47  37  67 SW6       29.64F
GAYLORD        CLEAR     39  30  70 S14       29.66F WCI  31
GRAYLING       CLEAR     42  32  67 S7        29.69F
HARBOR SPRINGS CLOUDY    43  32  64 S5        29.66F
MANISTEE       SUNNY     46  34  62 S13G22    29.66F
OSCODA         CLEAR     41  29  64 S13       29.74S
PELLSTON       CLOUDY    40  32  73 SE3       29.66F
ROGERS CITY    PTCLDY    40  32  72 SE5       29.70F
TRAVERSE CITY  CLOUDY    47  34  60 S9        29.64F
$$
MIZ007>008-015-202200-
EASTERN UPPER MICHIGAN

CITY           SKY/WX    TMP DP  RH WIND       PRES   REMARKS
KINROSS        MOCLDY    36  30  79 SE10      29.66F WCI  28
MACKINAC ISLAN MOCLDY    39  29  68 E6        29.66F WCI  35
NEWBERRY       CLOUDY    37  36  96 S10       29.60F FOG     WCI  30
S. S. MARIE    CLOUDY    37  29  72 SE8G18    29.66F WCI  31
MUNISING         N/A     37  32  82 S13       29.54F WCI  29
$$
MIZ004>006-011>014-085-202200-
CENTRAL UPPER MICHIGAN

CITY           SKY/WX    TMP DP  RH WIND       PRES   REMARKS
MANISTIQUE     CLOUDY    41  36  81 S13G23    29.60F
ESCANABA       PTCLDY    41  32  70 S9        29.57F
MENOMINEE      CLOUDY    43  31  62 S8        29.57F
SAWYER-GWINN   PTCLDY    34  27  75 S10       29.52F WCI  26
$$
MIZ001>003-009>011-084-202200-
WESTERN UPPER MICHIGAN

CITY           SKY/WX    TMP DP  RH WIND       PRES   REMARKS
IRON MOUNTAIN  CLOUDY    39  25  57 S7        29.50F WCI  34
HOUGHTON       CLOUDY    33  26  75 E8        29.42F WCI  26
COPPER HARBOR    N/A     38  30  73 S5        29.46F WCI  34
IRONWOOD       CLOUDY    40  30  67 SW6       29.38F
$$

ABBREVIATIONS USED IN REMARKS
   TC - TEMPERATURE IN CELSIUS
  WCI - WIND CHILL INDEX
   HX - HEAT INDEX
  VSB - VISIBILITY





USA.gov is the U.S. government's official web portal to all federal, state and local government web resources and services.